THY9ZP LTAC-LTFM

Flight info

Callsign THY9ZP
Flight time N/A
Altitude 28000
Route YAVRU A4 ERSEN
Aircraft B77W/H-SDE1E2E3FGHIJ2J3J4J5M1RWXY/LB1D1

Departure

Time 2026-05-01 14:52
Airport Esenboğa International Airport (LTAC)

Arrival

Time N/A
Airport İstanbul Airport (LTFM)
Time Latitude Longitude Altitude Speed Heading
2026-05-01 14:39 40.11315 32.98781 3117 ft 0 kts 126°
2026-05-01 14:44 40.11316 32.98779 3117 ft 2 kts 126°
2026-05-01 14:44 40.11331 32.98752 3117 ft 4 kts 126°
2026-05-01 14:45 40.11344 32.98728 3117 ft 4 kts 131°
2026-05-01 14:45 40.11368 32.98718 3118 ft 4 kts 218°
2026-05-01 14:45 40.11388 32.98740 3118 ft 4 kts 217°
2026-05-01 14:46 40.11392 32.98743 3118 ft 1 kts 216°
2026-05-01 14:48 40.11385 32.98737 3118 ft 3 kts 217°
2026-05-01 14:48 40.11307 32.98663 3115 ft 6 kts 215°
2026-05-01 14:49 40.11281 32.98572 3114 ft 6 kts 299°
2026-05-01 14:49 40.11330 32.98480 3114 ft 6 kts 308°
2026-05-01 14:50 40.11366 32.98416 3114 ft 7 kts 306°
2026-05-01 14:50 40.11478 32.98213 3114 ft 12 kts 306°
2026-05-01 14:51 40.11510 32.98156 3114 ft 7 kts 312°
2026-05-01 14:51 40.11597 32.98193 3115 ft 7 kts 36°
2026-05-01 14:52 40.12033 32.98608 3119 ft 103 kts 36°
2026-05-01 14:52 40.12787 32.99325 3123 ft 162 kts 36°
2026-05-01 14:52 40.14775 33.01307 4289 ft 180 kts 37°
2026-05-01 14:53 40.15736 33.02368 5064 ft 182 kts 36°
2026-05-01 14:53 40.16746 33.03470 5523 ft 196 kts 36°
2026-05-01 14:53 40.17811 33.04629 6128 ft 203 kts 36°
2026-05-01 14:53 40.18970 33.05875 6399 ft 226 kts 33°
2026-05-01 14:54 40.20399 33.06722 6833 ft 233 kts
2026-05-01 14:54 40.22054 33.06606 7304 ft 240 kts 345°
2026-05-01 14:54 40.23687 33.06095 8117 ft 239 kts 338°
2026-05-01 14:54 40.25096 33.05054 8706 ft 238 kts 308°
2026-05-01 14:55 40.26080 33.03231 9139 ft 251 kts 299°
2026-05-01 14:55 40.27037 33.01286 9897 ft 259 kts 299°
2026-05-01 14:55 40.28063 32.99283 10429 ft 274 kts 299°
2026-05-01 14:55 40.29218 32.97169 10696 ft 299 kts 303°
2026-05-01 14:56 40.30559 32.94894 11093 ft 328 kts 304°
2026-05-01 14:56 40.31990 32.92527 12166 ft 344 kts 304°
2026-05-01 14:56 40.33554 32.89955 12538 ft 381 kts 304°
2026-05-01 14:56 40.35008 32.87193 13257 ft 363 kts 291°
2026-05-01 14:57 40.35758 32.83959 13256 ft 379 kts 278°
2026-05-01 14:57 40.36750 32.77312 14534 ft 362 kts 280°
2026-05-01 14:57 40.37371 32.74106 15573 ft 361 kts 281°
2026-05-01 14:58 40.38010 32.70908 16611 ft 366 kts 280°
2026-05-01 14:58 40.38627 32.67640 17528 ft 369 kts 279°
2026-05-01 14:58 40.39233 32.64365 18628 ft 370 kts 278°
2026-05-01 14:58 40.39829 32.61070 19620 ft 371 kts 278°
2026-05-01 14:59 40.40446 32.57776 20844 ft 364 kts 278°
2026-05-01 14:59 40.41027 32.54639 22504 ft 357 kts 277°
2026-05-01 14:59 40.41623 32.51373 22729 ft 380 kts 277°
2026-05-01 14:59 40.42256 32.47904 22917 ft 402 kts 278°
2026-05-01 15:00 40.43608 32.40576 23937 ft 423 kts 278°
2026-05-01 15:00 40.44305 32.36805 24577 ft 427 kts 278°
2026-05-01 15:00 40.45008 32.32997 25268 ft 430 kts 278°
2026-05-01 15:01 40.45709 32.29175 25944 ft 432 kts 278°
2026-05-01 15:01 40.46411 32.25321 26548 ft 436 kts 278°
2026-05-01 15:01 40.47118 32.21427 27129 ft 441 kts 278°
2026-05-01 15:01 40.47937 32.17512 27667 ft 449 kts 282°
2026-05-01 15:02 40.49008 32.13692 28101 ft 455 kts 285°
2026-05-01 15:02 40.51429 32.06019 28077 ft 453 kts 286°
2026-05-01 15:03 40.53781 31.98355 28090 ft 452 kts 285°
2026-05-01 15:03 40.56046 31.90664 28096 ft 451 kts 285°
2026-05-01 15:04 40.58297 31.82970 28107 ft 451 kts 285°
2026-05-01 15:04 40.60332 31.75188 28113 ft 449 kts 282°
2026-05-01 15:05 40.62209 31.67366 28108 ft 448 kts 282°
2026-05-01 15:05 40.64098 31.59564 28105 ft 447 kts 282°
2026-05-01 15:06 40.66007 31.51786 28128 ft 447 kts 282°
2026-05-01 15:06 40.67924 31.43993 28133 ft 447 kts 282°
2026-05-01 15:07 40.69524 31.37464 28131 ft 447 kts 282°
2026-05-01 15:07 40.71425 31.29687 28137 ft 445 kts 283°
2026-05-01 15:08 40.73307 31.21952 28153 ft 448 kts 283°
2026-05-01 15:08 40.75199 31.14148 28148 ft 446 kts 283°
2026-05-01 15:09 40.77082 31.06378 28166 ft 444 kts 283°
2026-05-01 15:09 40.78953 30.98609 28172 ft 444 kts 283°
2026-05-01 15:10 40.80817 30.90846 28173 ft 443 kts 283°
2026-05-01 15:10 40.83600 30.79213 28171 ft 443 kts 283°
2026-05-01 15:11 40.86200 30.67516 28173 ft 440 kts 277°
2026-05-01 15:12 40.86890 30.59594 28173 ft 435 kts 269°
2026-05-01 15:12 40.87122 30.51606 27485 ft 436 kts 269°
2026-05-01 15:12 40.87244 30.47637 26865 ft 430 kts 270°
2026-05-01 15:13 40.87617 30.35942 24901 ft 420 kts 270°
2026-05-01 15:14 40.87860 30.28279 23599 ft 414 kts 270°
2026-05-01 15:14 40.87978 30.24487 22869 ft 410 kts 270°
2026-05-01 15:14 40.88207 30.17041 21584 ft 401 kts 270°
2026-05-01 15:15 40.88427 30.09754 20358 ft 393 kts 270°
2026-05-01 15:15 40.88637 30.02596 19174 ft 387 kts 271°
2026-05-01 15:16 40.88841 29.95481 17922 ft 387 kts 271°
2026-05-01 15:16 40.89040 29.88426 16692 ft 380 kts 271°
2026-05-01 15:17 40.89131 29.85142 16140 ft 377 kts 271°
2026-05-01 15:18 40.89410 29.74875 14435 ft 369 kts 271°
2026-05-01 15:18 40.89500 29.71503 13860 ft 366 kts 271°
2026-05-01 15:19 40.89758 29.61547 12061 ft 360 kts 272°
2026-05-01 15:19 40.89926 29.54897 10924 ft 357 kts 272°
2026-05-01 15:19 40.90004 29.51748 10770 ft 333 kts 272°
2026-05-01 15:20 40.90137 29.46221 10491 ft 276 kts 272°
2026-05-01 15:20 40.90198 29.43731 10375 ft 267 kts 272°
2026-05-01 15:20 40.90256 29.41323 10274 ft 257 kts 272°
2026-05-01 15:21 40.90312 29.38980 10180 ft 257 kts 273°
2026-05-01 15:21 40.90370 29.36546 10109 ft 273 kts 273°
2026-05-01 15:21 40.90431 29.33995 9885 ft 281 kts 273°
2026-05-01 15:21 40.90491 29.31394 9522 ft 285 kts 273°
2026-05-01 15:22 40.90609 29.26142 8827 ft 288 kts 273°
2026-05-01 15:22 40.90668 29.23477 8487 ft 290 kts 274°
2026-05-01 15:22 40.90729 29.20819 8166 ft 291 kts 274°
2026-05-01 15:23 40.90788 29.18160 7855 ft 290 kts 274°
2026-05-01 15:23 40.90845 29.15495 7508 ft 290 kts 274°
2026-05-01 15:23 40.90903 29.12836 7179 ft 289 kts 275°
2026-05-01 15:23 40.90962 29.10192 6882 ft 287 kts 274°
2026-05-01 15:24 40.91016 29.07540 6526 ft 289 kts 275°
2026-05-01 15:24 40.91068 29.04922 6279 ft 275 kts 275°
2026-05-01 15:24 40.91115 29.02489 6061 ft 254 kts 275°
2026-05-01 15:24 40.91065 29.00266 5927 ft 234 kts 262°
2026-05-01 15:25 40.90665 28.98165 5965 ft 246 kts 257°
2026-05-01 15:25 40.90282 28.95858 5821 ft 263 kts 276°
2026-05-01 15:25 40.90577 28.93520 5890 ft 258 kts 287°
2026-05-01 15:25 40.90929 28.91203 5880 ft 255 kts 285°
2026-05-01 15:26 40.91231 28.88912 5867 ft 252 kts 284°
2026-05-01 15:26 40.91519 28.86627 5849 ft 249 kts 287°
2026-05-01 15:26 40.92210 28.84634 5829 ft 232 kts 311°
2026-05-01 15:26 40.93143 28.82869 5863 ft 237 kts 309°
2026-05-01 15:27 40.94033 28.81034 5867 ft 240 kts 307°
2026-05-01 15:27 40.94913 28.79158 5866 ft 241 kts 307°
2026-05-01 15:27 40.95806 28.77235 5524 ft 247 kts 307°
2026-05-01 15:28 40.97865 28.73905 5068 ft 217 kts 344°
2026-05-01 15:28 40.99281 28.73509 5027 ft 207 kts 359°
2026-05-01 15:28 41.00689 28.73346 5020 ft 205 kts
2026-05-01 15:29 41.03533 28.73218 4668 ft 203 kts
2026-05-01 15:29 41.04876 28.73186 4370 ft 189 kts
2026-05-01 15:29 41.07481 28.73138 3967 ft 189 kts
2026-05-01 15:30 41.10094 28.73088 3412 ft 183 kts
2026-05-01 15:31 41.14905 28.72992 2648 ft 158 kts
2026-05-01 15:31 41.16977 28.72953 2229 ft 142 kts
2026-05-01 15:32 41.18900 28.72915 1847 ft 134 kts
2026-05-01 15:32 41.20759 28.72880 1490 ft 132 kts
2026-05-01 15:33 41.23564 28.72829 940 ft 134 kts
2026-05-01 15:34 41.26436 28.72760 379 ft 148 kts